Overview Statistics Trail Chart Weather Telemetry Raw packets
 

This is the latest recevied weather packets stored in our database for station/object OE6JVE-13. If no packets are shown the sender has not sent any weather packets the latest 10 day(s).

<< 1 2 3 4 >>
Time Temp. Humidity Pressure Rain* Wind** Luminosity Snow
1788696071 27.78° C 36% 1016 hPa 0 mm - - -
1788695479 27.78° C 37% 1016 hPa 0 mm - - -
1788694850 26.67° C 41% 1016.2 hPa 0 mm - - -
1788694231 26.67° C 42% 1016.2 hPa 0 mm - - -
1788693639 26.67° C 40% 1016.2 hPa 0 mm - - -
1788693045 26.67° C 41% 1016.4 hPa 0 mm - - -
1788692459 26.11° C 41% 1016.6 hPa 0 mm - - -
1788691860 26.11° C 41% 1016.7 hPa 0 mm - - -
1788691269 26.11° C 41% 1016.8 hPa 0 mm - - -
1788690677 26.11° C 42% 1017 hPa 0 mm - - -
1788690019 25.56° C 41% 1017.1 hPa 0 mm - - -
1788689427 25° C 42% 1017.3 hPa 0 mm - - -
1788688848 25° C 43% 1017.5 hPa 0 mm - - -
1788688242 25° C 43% 1017.9 hPa 0 mm - - -
1788687650 24.44° C 44% 1018.1 hPa 0 mm - - -
1788687058 24.44° C 44% 1018.2 hPa 0 mm - - -
1788686490 23.89° C 49% 1018.5 hPa 0 mm - - -
1788685874 22.78° C 53% 1018.5 hPa 0 mm - - -
1788685245 21.67° C 57% 1018.6 hPa 0 mm - - -
1788684624 21.11° C 61% 1018.8 hPa 0 mm - - -
1788684032 20° C 67% 1018.9 hPa 0 mm - - -
1788683440 19.44° C 69% 1018.9 hPa 0 mm - - -
1788682848 18.89° C 73% 1019 hPa 0 mm - - -
1788682389 18.89° C 72% 1019 hPa 0 mm - - -
1788681663 17.78° C 78% 1019.1 hPa 0 mm - - -

* Rain latest hour (hover to see other rain measurements)
** Current wind speed in m/s (hover to see current wind gust speed)